Preview of NWS' New Version of Forecast
This preview is not operational and should not be used for support decisions.

Regional Weather Roundup (RWR)

Issued by National Weather Service (NWS)

                            
000
ASUS43 KTOP 201959
RWRKS 

WEATHER ROUNDUP FOR KANSAS
NATIONAL WEATHER SERVICE GOODLAND KS
200 PM CST WED FEB 20 2019

NOTE:  "FAIR" INDICATES FEW OR NO CLOUDS BELOW 12,000 FEET WITH NO
SIGNIFICANT WEATHER AND/OR OBSTRUCTIONS TO VISIBILITY.

KSZ001>006-013>018-027>032-041>047-202100-
NORTHWEST KANSAS
  
CITY           SKY/WX    TMP DP  RH WIND       PRES   REMARKS
GOODLAND       SUNNY     30  17  58 SW18      29.68F WCI  18          
HAYS           SUNNY     36  15  42 W16       29.77F WCI  26          
HILL CITY      SUNNY     36  19  50 W16G30    29.75S WCI  26          
RUSSELL        SUNNY     34  19  54 W16       29.76S WCI  24          
$$

KSZ061>065-074>080-084>089-202100-
SOUTHWEST KANSAS
  
CITY           SKY/WX    TMP DP  RH WIND       PRES   REMARKS
DODGE CITY     SUNNY     38  11  32 VRB5      29.78R                  
GARDEN CITY    SUNNY     36  12  37 W12       29.77S WCI  28          
GREAT BEND     SUNNY     38  13  35 NW14      29.79F WCI  30          
LIBERAL        SUNNY     40  13  33 VRB3      29.79F                  
$$

KSZ066>073-081>083-090>101-202100-
SOUTHEAST KANSAS
  
CITY           SKY/WX    TMP DP  RH WIND       PRES   REMARKS
CHANUTE        CLOUDY    37  28  70 W13       29.86S WCI  29          
COFFEYVILLE    CLOUDY    41  33  73 W13       29.87S                  
HUTCHINSON     SUNNY     34  24  67 W14       29.81F WCI  25          
MEDICINE LODGE   N/A     38  25  59 W6        29.83F                  
NEWTON         PTSUNNY   34  26  72 W10       29.82S WCI  26          
PARSONS        CLOUDY    37  32  82 SW5       29.88S                  
WICHITA INTL   PTSUNNY   34  29  82 W10       29.85R WCI  26          
WICHITA JABRA  PTSUNNY   35  27  72 SW8       29.84R                  
WICHITA MCCONL PTSUNNY   33  27  78 SW7       29.84S                  
WINFIELD       CLOUDY    30  26  85 SW12      29.89R FOG     WCI  20  
$$

KSZ007>012-019>026-033>040-048>060-102>105-202100-
NORTHEAST KANSAS
  
CITY           SKY/WX    TMP DP  RH WIND       PRES   REMARKS
CONCORDIA      SUNNY     29  20  69 SW14      29.75F WCI  18          
EMPORIA        SUNNY     36  27  69 W13       29.82S WCI  27          
LAWRENCE       PTSUNNY   36  24  62 W22G29    29.81F WCI  25          
MANHATTAN      SUNNY     36  22  56 W12       29.80S WCI  28          
OLATHE IND     CLOUDY    34  26  72 W16       29.81S WCI  24          
OLATHE EXE     CLOUDY    34  25  69 W12G23    29.80S WCI  25          
SALINA         SUNNY     34  23  64 SW10      29.81F WCI  26          
TOPEKA BILLARD PTSUNNY   37  24  59 W12G24    29.80S WCI  29          
TOPEKA FORBES  MOSUNNY   35  23  61 W22       29.79F WCI  23          
$$